Milton, FL

10:04 PM CST on December 08, 2016 (GMT -0600)
Whiting Field Naval Air Station (North)

Weather History for KNSE - October, 2011

Change the Weather History Date:

Sunday, October 2, 2011

  Actual Average Record
Temperature  
Mean Temperature 60 °F -  
Max Temperature 75 °F 80 °F 89 °F (2006)
Min Temperature 46 °F 62 °F 46 °F (2011)
Degree Days  
Heating Degree Days 6    
Growing Degree Days 10 (Base 50)    
Moisture  
Dew Point 46 °F    
Average Humidity 61    
Maximum Humidity 90    
Minimum Humidity 34    
Precipitation  
Precipitation 0.00 in - - ()
Sea Level Pressure  
Sea Level Pressure 30.09 in    
Wind  
Wind Speed 5 mph (North)    
Max Wind Speed 10 mph    
Max Gust Speed 18 mph    
Visibility 10 miles    
Events      
Averages and records for this station are not official NWS values.
T = Trace of Precipitation, MM = Missing Value Source: NWS Daily Summary

Daily Weather History Graph

Daily Weather History Graph

Search for Another Location

Airport or City:

Trip Planner

Search our weather history database for the weather conditions in past years. The results will help you decide how hot, cold, wet, or windy it might be!

Date:

Astronomy

Oct. 02, 2011 Rise Set
Actual Time 6:42 AM CDT 6:32 PM CDT
Civil Twilight 6:18 AM CDT 6:56 PM CDT
Nautical Twilight 5:50 AM CDT 7:24 PM CDT
Astronomical Twilight 5:22 AM CDT 7:52 PM CDT
Moon 12:25 PM CDT (10/2) 10:53 PM CDT (10/2)
Length of Visible Light 12h 38m
Length of Day
11h 50m
Waxing Crescent, 35% of the Moon is Illuminated
Oct 2
Waxing Crescent
Oct 3
First Quarter
Oct 11
Full
Oct 19
Last Quarter
Oct 26
New

Hourly Weather History & Observations

Time (CDT) Temp. Dew Point Humidity Pressure Visibility Wind Dir Wind Speed Gust Speed Precip Events Conditions
12:56 AM 54.0 °F 45.0 °F 72% 30.06 in 10.0 mi North 3.5 mph - N/A   Clear
1:56 AM 54.0 °F 44.1 °F 69% 30.06 in 10.0 mi North 3.5 mph - N/A   Clear
2:56 AM 51.1 °F 45.0 °F 80% 30.06 in 10.0 mi Calm Calm - N/A   Clear
3:56 AM 52.0 °F 44.1 °F 74% 30.06 in 10.0 mi North 5.8 mph - N/A   Clear
4:56 AM 50.0 °F 44.1 °F 80% 30.07 in 10.0 mi North 3.5 mph - N/A   Clear
5:56 AM 48.0 °F 44.1 °F 86% 30.09 in 10.0 mi NW 3.5 mph - N/A   Clear
6:56 AM 46.9 °F 44.1 °F 90% 30.11 in 10.0 mi NNW 3.5 mph - N/A   Clear
7:56 AM 53.1 °F 46.9 °F 80% 30.13 in 10.0 mi NNW 3.5 mph - N/A   Clear
8:56 AM 57.9 °F 46.0 °F 65% 30.14 in 10.0 mi NNE 5.8 mph - N/A   Clear
9:56 AM 63.0 °F 44.1 °F 50% 30.14 in 10.0 mi NE 10.4 mph 18.4 mph N/A   Clear
10:56 AM 66.0 °F 44.1 °F 45% 30.13 in 10.0 mi ENE 8.1 mph - N/A   Clear
11:56 AM 70.0 °F 46.0 °F 42% 30.12 in 10.0 mi North 8.1 mph - N/A   Clear
12:56 PM 71.1 °F 46.0 °F 41% 30.10 in 10.0 mi North 8.1 mph - N/A   Clear
1:56 PM 73.0 °F 46.9 °F 39% 30.07 in 10.0 mi North 10.4 mph - N/A   Clear
2:56 PM 73.9 °F 44.1 °F 34% 30.06 in 10.0 mi North 8.1 mph - N/A   Clear
3:56 PM 73.9 °F 44.1 °F 34% 30.05 in 10.0 mi North 8.1 mph - N/A   Clear
4:56 PM 73.9 °F 45.0 °F 35% 30.05 in 10.0 mi NNW 8.1 mph - N/A   Clear
5:56 PM 71.1 °F 48.0 °F 44% 30.06 in 10.0 mi NNW 3.5 mph - N/A   Clear
6:56 PM 62.1 °F 51.1 °F 67% 30.07 in 10.0 mi Calm Calm - N/A   Clear
7:56 PM 57.0 °F 51.1 °F 81% 30.09 in 10.0 mi NNW 4.6 mph - N/A   Clear
8:56 PM 60.1 °F 46.9 °F 62% 30.09 in 10.0 mi NNW 5.8 mph - N/A   Clear
9:56 PM 59.0 °F 46.9 °F 64% 30.11 in 10.0 mi NNW 3.5 mph - N/A   Clear
10:56 PM 57.9 °F 46.0 °F 65% 30.11 in 10.0 mi NW 5.8 mph - N/A   Clear
11:56 PM 55.0 °F 46.0 °F 72% 30.11 in 10.0 mi NNW 4.6 mph - N/A   Clear